Time,TemperatureF,DewpointF,PressureIn,WindDirection,WindDirectionDegrees,WindSpeedMPH,WindSpeedGustMPH,Humidity,HourlyPrecipIn,Conditions,Clouds,dailyrainin,SoftwareType,DateUTC
2013-03-20 00:00:00,38.8,19.3,30.17,NW,315,1.7,1.7,45,0.00,CLR,,0.00,WeatherDisplay:10.37,2013-03-20 05:00:00,
2013-03-20 00:05:00,38.8,19.3,30.17,NW,315,1.7,1.7,45,0.00,CLR,,0.00,WeatherDisplay:10.37,2013-03-20 05:05:00,
2013-03-20 00:10:00,38.8,19.3,30.17,NW,315,1.7,1.7,45,0.00,CLR,,0.00,WeatherDisplay:10.37,2013-03-20 05:10:00,
2013-03-20 00:15:00,38.8,20.3,30.16,SW,225,1.7,1.7,47,0.00,CLR,,0.00,WeatherDisplay:10.37,2013-03-20 05:15:00,
2013-03-20 00:20:00,38.7,20.6,30.16,West,270,2.3,2.3,48,0.00,CLR,,0.00,WeatherDisplay:10.37,2013-03-20 05:20:00,
2013-03-20 00:21:00,38.7,20.6,30.16,NW,315,1.6,1.6,48,0.00,CLR,,0.00,WeatherDisplay:10.37,2013-03-20 05:21:00,
2013-03-20 00:25:00,38.7,20.6,30.16,NW,315,1.6,1.6,48,0.00,CLR,,0.00,WeatherDisplay:10.37,2013-03-20 05:25:00,
2013-03-20 00:30:00,38.7,20.6,30.16,NW,315,1.6,1.6,48,0.00,CLR,,0.00,WeatherDisplay:10.37,2013-03-20 05:30:00,
2013-03-20 01:00:00,38.3,24.0,30.16,West,270,1.1,2.2,56,0.00,CLR,,0.00,WeatherDisplay:10.37,2013-03-20 06:00:00,
2013-03-20 01:18:00,38.7,20.6,30.16,NW,315,1.6,1.6,48,0.00,CLR,,0.00,WeatherDisplay:10.37,2013-03-20 06:18:00,
2013-03-20 01:23:00,38.7,20.6,30.16,NW,315,1.6,1.6,48,0.00,CLR,,0.00,WeatherDisplay:10.37,2013-03-20 06:23:00,
2013-03-20 01:31:00,38.3,24.4,30.15,WNW,292,2.3,2.3,57,0.00,CLR,,0.00,WeatherDisplay:10.37,2013-03-20 06:31:00,
2013-03-20 01:37:00,38.3,24.4,30.15,WSW,248,2.3,2.3,57,0.00,CLR,,0.00,WeatherDisplay:10.37,2013-03-20 06:37:00,
2013-03-20 01:41:00,38.1,24.2,30.15,NW,315,2.3,2.3,57,0.00,CLR,,0.00,WeatherDisplay:10.37,2013-03-20 06:41:00,
2013-03-20 01:42:00,38.1,24.2,30.15,NW,315,1.6,1.8,57,0.00,CLR,,0.00,WeatherDisplay:10.37,2013-03-20 06:42:00,
2013-03-20 01:47:00,38.1,24.2,30.15,WSW,248,3.4,3.4,57,0.00,CLR,,0.00,WeatherDisplay:10.37,2013-03-20 06:47:00,
2013-03-20 01:52:00,38.3,24.8,30.14,WSW,248,2.3,2.3,58,0.00,CLR,,0.00,WeatherDisplay:10.37,2013-03-20 06:52:00,
2013-03-20 01:57:00,37.9,24.5,30.14,WSW,248,2.5,2.5,58,0.00,CLR,,0.00,WeatherDisplay:10.37,2013-03-20 06:57:00,
2013-03-20 02:02:00,37.9,24.5,30.14,WSW,248,1.2,1.5,58,0.00,CLR,,0.00,WeatherDisplay:10.37,2013-03-20 07:02:00,
2013-03-20 02:07:00,37.8,24.7,30.14,WNW,292,0.0,1.5,59,0.00,CLR,,0.00,WeatherDisplay:10.37,2013-03-20 07:07:00,
2013-03-20 02:12:00,37.8,24.7,30.15,West,270,1.7,1.7,59,0.00,CLR,,0.00,WeatherDisplay:10.37,2013-03-20 07:12:00,
2013-03-20 02:17:00,37.4,24.8,30.15,NNW,338,0.0,1.4,60,0.00,CLR,,0.00,WeatherDisplay:10.37,2013-03-20 07:17:00,
2013-03-20 02:22:00,37.6,24.9,30.15,WNW,292,1.5,1.5,60,0.00,CLR,,0.00,WeatherDisplay:10.37,2013-03-20 07:22:00,
2013-03-20 02:27:00,37.2,25.0,30.15,West,270,2.3,2.3,61,0.00,CLR,,0.00,WeatherDisplay:10.37,2013-03-20 07:27:00,
2013-03-20 02:32:00,37.2,25.0,30.14,NW,315,1.5,1.5,61,0.00,CLR,,0.00,WeatherDisplay:10.37,2013-03-20 07:32:00,
2013-03-20 02:37:00,37.2,25.8,30.14,West,270,2.7,2.7,63,0.00,CLR,,0.00,WeatherDisplay:10.37,2013-03-20 07:37:00,
2013-03-20 02:41:00,37.0,26.4,30.14,NW,315,2.3,2.4,65,0.00,CLR,,0.00,WeatherDisplay:10.37,2013-03-20 07:41:00,
2013-03-20 02:42:00,37.2,26.2,30.14,South,180,4.6,4.6,64,0.00,CLR,,0.00,WeatherDisplay:10.37,2013-03-20 07:42:00,
2013-03-20 02:47:00,37.0,26.4,30.14,NW,315,2.3,2.4,65,0.00,CLR,,0.00,WeatherDisplay:10.37,2013-03-20 07:47:00,
2013-03-20 02:52:00,37.0,26.0,30.13,West,270,1.6,2.0,64,0.00,CLR,,0.00,WeatherDisplay:10.37,2013-03-20 07:52:00,
2013-03-20 02:57:00,37.0,26.4,30.13,WSW,248,2.3,2.3,65,0.00,FEW,,0.00,WeatherDisplay:10.37,2013-03-20 07:57:00,
2013-03-20 03:02:00,37.0,26.4,30.13,NW,315,2.4,2.4,65,0.00,FEW,,0.00,WeatherDisplay:10.37,2013-03-20 08:02:00,
2013-03-20 03:08:00,36.9,26.6,30.13,NW,315,2.4,2.4,66,0.40,RA,,0.40,WeatherDisplay:10.37,2013-03-20 08:08:00,
2013-03-20 03:15:00,36.7,26.7,30.13,West,270,3.8,3.8,67,0.40,FEW,,0.40,WeatherDisplay:10.37,2013-03-20 08:15:00,
2013-03-20 03:20:00,36.9,26.9,30.13,WNW,292,2.3,2.3,67,0.40,FEW,,0.40,WeatherDisplay:10.37,2013-03-20 08:20:00,
2013-03-20 03:21:00,36.7,27.1,30.13,WSW,248,2.3,2.3,68,0.40,FEW,,0.40,WeatherDisplay:10.37,2013-03-20 08:21:00,
2013-03-20 03:25:00,36.9,27.3,30.13,SSW,202,2.3,2.3,68,0.40,FEW,,0.40,WeatherDisplay:10.37,2013-03-20 08:25:00,
2013-03-20 03:30:00,36.7,27.1,30.13,WSW,248,2.3,2.3,68,0.40,FEW,,0.40,WeatherDisplay:10.37,2013-03-20 08:30:00,
2013-03-20 03:35:00,36.5,27.3,30.14,WNW,292,3.4,3.4,69,0.40,FEW,,0.40,WeatherDisplay:10.37,2013-03-20 08:35:00,
2013-03-20 03:40:00,36.5,27.3,30.14,West,270,3.4,3.4,69,0.40,FEW,,0.40,WeatherDisplay:10.37,2013-03-20 08:40:00,
2013-03-20 03:45:00,36.5,27.6,30.14,West,270,3.4,3.4,70,0.40,FEW,,0.40,WeatherDisplay:10.37,2013-03-20 08:45:00,
2013-03-20 03:50:00,36.3,27.5,30.14,NNW,338,3.8,3.8,70,0.40,FEW,,0.40,WeatherDisplay:10.37,2013-03-20 08:50:00,
2013-03-20 03:55:00,36.3,27.5,30.13,WSW,248,2.3,2.3,70,0.40,FEW,,0.40,WeatherDisplay:10.37,2013-03-20 08:55:00,
2013-03-20 04:00:00,36.3,27.8,30.13,WNW,292,3.4,3.4,71,0.40,FEW,,0.40,WeatherDisplay:10.37,2013-03-20 09:00:00,
2013-03-20 04:05:00,36.3,28.2,30.13,West,270,3.4,3.4,72,0.00,FEW,,0.40,WeatherDisplay:10.37,2013-03-20 09:05:00,
2013-03-20 04:10:00,36.3,28.2,30.13,ENE,68,2.3,2.5,72,0.00,FEW,,0.40,WeatherDisplay:10.37,2013-03-20 09:10:00,
2013-03-20 04:15:00,36.3,28.2,30.13,NW,315,3.4,3.4,72,0.00,FEW,,0.40,WeatherDisplay:10.37,2013-03-20 09:15:00,
2013-03-20 04:20:00,36.3,28.2,30.13,NW,315,5.8,5.8,72,0.00,FEW,,0.40,WeatherDisplay:10.37,2013-03-20 09:20:00,
2013-03-20 04:25:00,36.3,28.5,30.13,NNW,338,4.9,4.9,73,0.00,FEW,,0.40,WeatherDisplay:10.37,2013-03-20 09:25:00,
2013-03-20 04:30:00,36.3,28.5,30.13,WNW,292,3.4,3.4,73,0.00,FEW,,0.40,WeatherDisplay:10.37,2013-03-20 09:30:00,
2013-03-20 04:35:00,36.3,28.5,30.14,WSW,248,2.3,2.3,73,0.00,FEW,,0.40,WeatherDisplay:10.37,2013-03-20 09:35:00,
2013-03-20 04:40:00,36.1,28.3,30.14,NW,315,2.7,2.7,73,0.00,FEW,,0.40,WeatherDisplay:10.37,2013-03-20 09:40:00,
2013-03-20 04:45:00,36.1,28.3,30.14,NW,315,2.6,2.6,73,0.00,FEW,,0.40,WeatherDisplay:10.37,2013-03-20 09:45:00,
2013-03-20 04:50:00,36.0,28.1,30.14,NNW,338,2.3,2.3,73,0.00,FEW,,0.40,WeatherDisplay:10.37,2013-03-20 09:50:00,
2013-03-20 04:55:00,36.0,28.1,30.15,NW,315,2.8,2.8,73,0.00,FEW,,0.40,WeatherDisplay:10.37,2013-03-20 09:55:00,
2013-03-20 05:00:00,36.1,28.3,30.15,ENE,68,5.1,5.1,73,0.00,FEW,,0.40,WeatherDisplay:10.37,2013-03-20 10:00:00,
2013-03-20 05:05:00,35.8,28.0,30.15,NW,308,2.0,5.0,73,0.00,FEW,,0.40,WeatherDisplay:10.37,2013-03-20 10:05:00,
2013-03-20 05:10:00,35.6,27.8,30.15,NNE,22,3.4,3.4,73,0.00,FEW,,0.40,WeatherDisplay:10.37,2013-03-20 10:10:00,
2013-03-20 05:11:00,35.6,27.8,30.16,East,90,3.4,3.4,73,0.00,SCT,,0.40,WeatherDisplay:10.37,2013-03-20 10:11:00,
2013-03-20 05:15:00,35.6,27.8,30.16,WNW,292,2.3,2.3,73,0.00,SCT,,0.40,WeatherDisplay:10.37,2013-03-20 10:15:00,
2013-03-20 05:20:00,35.4,27.3,30.16,ENE,68,1.4,2.0,72,0.00,SCT,,0.40,WeatherDisplay:10.37,2013-03-20 10:20:00,
2013-03-20 05:25:00,35.4,26.9,30.16,NNW,338,2.5,2.5,71,0.00,SCT,,0.40,WeatherDisplay:10.37,2013-03-20 10:25:00,
2013-03-20 05:30:00,35.2,26.4,30.16,NW,315,2.7,2.7,70,0.00,SCT,,0.40,WeatherDisplay:10.37,2013-03-20 10:30:00,
2013-03-20 05:35:00,34.9,25.4,30.16,NW,315,4.6,4.6,68,0.00,SCT,,0.40,WeatherDisplay:10.37,2013-03-20 10:35:00,
2013-03-20 05:40:00,35.1,25.2,30.16,NE,45,0.0,2.1,67,0.00,SCT,,0.40,WeatherDisplay:10.37,2013-03-20 10:40:00,
2013-03-20 05:45:00,34.9,24.7,30.16,NNW,338,1.6,1.6,66,0.00,SCT,,0.40,WeatherDisplay:10.37,2013-03-20 10:45:00,
2013-03-20 05:50:00,34.7,24.1,30.16,NW,315,0.0,0.8,65,0.00,SCT,,0.40,WeatherDisplay:10.37,2013-03-20 10:50:00,
2013-03-20 05:51:00,34.3,23.0,30.16,NNW,338,3.4,3.4,63,0.00,SCT,,0.40,WeatherDisplay:10.37,2013-03-20 10:51:00,
2013-03-20 05:55:00,34.7,24.1,30.16,North,8,1.0,4.0,65,0.00,SCT,,0.40,WeatherDisplay:10.37,2013-03-20 10:55:00,
2013-03-20 06:00:00,34.3,23.0,30.16,NNW,328,1.0,3.0,63,0.00,SCT,,0.40,WeatherDisplay:10.37,2013-03-20 11:00:00,
2013-03-20 06:05:00,34.3,23.0,30.16,NE,51,1.0,3.0,63,0.00,SCT,,0.40,WeatherDisplay:10.37,2013-03-20 11:05:00,
2013-03-20 06:10:00,34.3,23.0,30.16,ESE,112,2.3,2.3,63,0.00,SCT,,0.40,WeatherDisplay:10.37,2013-03-20 11:10:00,
2013-03-20 06:11:00,34.0,21.5,30.17,SW,225,2.3,2.3,60,0.00,SCT,,0.40,WeatherDisplay:10.37,2013-03-20 11:11:00,
2013-03-20 06:15:00,34.0,21.5,30.17,NNE,22,2.3,2.3,60,0.00,SCT,,0.40,WeatherDisplay:10.37,2013-03-20 11:15:00,
2013-03-20 06:20:00,33.8,21.0,30.17,North,355,1.0,2.0,59,0.00,SCT,,0.40,WeatherDisplay:10.37,2013-03-20 11:20:00,
2013-03-20 06:25:00,33.6,20.4,30.17,North,0,1.3,1.3,58,0.00,SCT,,0.40,WeatherDisplay:10.37,2013-03-20 11:25:00,
2013-03-20 06:30:00,33.6,20.4,30.17,ENE,68,1.5,1.5,58,0.00,SCT,,0.40,WeatherDisplay:10.37,2013-03-20 11:30:00,
2013-03-20 06:31:00,33.3,20.1,30.17,NE,45,1.1,1.1,58,0.00,SCT,,0.40,WeatherDisplay:10.37,2013-03-20 11:31:00,
2013-03-20 06:35:00,33.4,20.2,30.17,NW,315,1.5,1.5,58,0.00,SCT,,0.40,WeatherDisplay:10.37,2013-03-20 11:35:00,
2013-03-20 06:40:00,33.3,20.1,30.17,NE,45,1.1,1.1,58,0.00,SCT,,0.40,WeatherDisplay:10.37,2013-03-20 11:40:00,
2013-03-20 06:45:00,32.9,19.7,30.17,NNE,22,2.8,2.8,58,0.00,SCT,,0.40,WeatherDisplay:10.37,2013-03-20 11:45:00,
2013-03-20 06:50:00,32.9,19.7,30.17,NW,315,2.3,2.3,58,0.00,SCT,,0.40,WeatherDisplay:10.37,2013-03-20 11:50:00,
2013-03-20 06:55:00,32.7,19.6,30.18,East,90,0.0,1.0,58,0.00,SCT,,0.40,WeatherDisplay:10.37,2013-03-20 11:55:00,
2013-03-20 07:00:00,32.7,20.0,30.18,NNW,338,2.4,2.4,59,0.00,SCT,,0.40,WeatherDisplay:10.37,2013-03-20 12:00:00,
2013-03-20 07:05:00,32.5,19.8,30.18,NNE,22,1.4,1.4,59,0.00,SCT,,0.40,WeatherDisplay:10.37,2013-03-20 12:05:00,
2013-03-20 07:10:00,32.5,19.8,30.18,NE,45,1.2,1.2,59,0.00,SCT,,0.40,WeatherDisplay:10.37,2013-03-20 12:10:00,
2013-03-20 07:11:00,32.2,19.8,30.18,NNW,338,2.8,2.8,60,0.00,SCT,,0.40,WeatherDisplay:10.37,2013-03-20 12:11:00,
2013-03-20 07:15:00,32.2,19.8,30.18,NNW,328,1.0,8.0,60,0.00,SCT,,0.40,WeatherDisplay:10.37,2013-03-20 12:15:00,
2013-03-20 07:20:00,32.0,20.1,30.18,ENE,68,3.4,3.4,61,0.00,SCT,,0.40,WeatherDisplay:10.37,2013-03-20 12:20:00,
2013-03-20 07:25:00,32.0,20.1,30.18,North,0,3.9,3.9,61,0.00,SCT,,0.40,WeatherDisplay:10.37,2013-03-20 12:25:00,
2013-03-20 07:30:00,32.0,20.1,30.18,NW,315,3.8,3.8,61,0.00,SCT,,0.40,WeatherDisplay:10.37,2013-03-20 12:30:00,
2013-03-20 07:31:00,32.0,20.4,30.20,NNW,338,2.3,2.8,62,0.00,SCT,,0.40,WeatherDisplay:10.37,2013-03-20 12:31:00,
2013-03-20 07:35:00,32.0,20.1,30.20,NW,315,2.3,3.0,61,0.00,SCT,,0.40,WeatherDisplay:10.37,2013-03-20 12:35:00,
2013-03-20 07:40:00,32.0,20.4,30.20,NW,315,3.6,3.6,62,0.00,SCT,,0.40,WeatherDisplay:10.37,2013-03-20 12:40:00,
2013-03-20 07:45:00,32.0,20.4,30.20,WNW,292,2.3,2.3,62,0.00,BKN,,0.40,WeatherDisplay:10.37,2013-03-20 12:45:00,
2013-03-20 07:50:00,32.0,20.8,30.20,ESE,112,1.5,1.8,63,0.00,BKN,,0.40,WeatherDisplay:10.37,2013-03-20 12:50:00,
2013-03-20 07:55:00,32.2,21.0,30.21,WSW,248,0.0,1.5,63,0.00,BKN,,0.40,WeatherDisplay:10.37,2013-03-20 12:55:00,
2013-03-20 08:00:00,32.2,21.0,30.21,NW,315,0.0,1.5,63,0.00,BKN,,0.40,WeatherDisplay:10.37,2013-03-20 13:00:00,
2013-03-20 08:05:00,32.5,21.3,30.21,NW,315,3.4,3.4,63,0.00,BKN,,0.40,WeatherDisplay:10.37,2013-03-20 13:05:00,
2013-03-20 08:10:00,32.4,21.2,30.21,NNW,332,1.0,3.0,63,0.00,BKN,,0.40,WeatherDisplay:10.37,2013-03-20 13:10:00,
2013-03-20 08:11:00,32.5,21.0,30.22,NW,315,3.4,3.4,62,0.00,BKN,,0.40,WeatherDisplay:10.37,2013-03-20 13:11:00,
2013-03-20 08:15:00,32.5,21.0,30.22,SW,225,4.6,4.6,62,0.00,BKN,,0.40,WeatherDisplay:10.37,2013-03-20 13:15:00,
2013-03-20 08:20:00,32.5,21.0,30.22,NW,315,3.4,3.4,62,0.00,BKN,,0.40,WeatherDisplay:10.37,2013-03-20 13:20:00,
2013-03-20 08:21:00,32.5,21.0,30.22,NE,45,3.5,3.5,62,0.00,BKN,,0.40,WeatherDisplay:10.37,2013-03-20 13:21:00,
2013-03-20 08:25:00,32.4,20.8,30.22,NNW,338,3.6,3.6,62,0.00,BKN,,0.40,WeatherDisplay:10.37,2013-03-20 13:25:00,
2013-03-20 08:30:00,32.2,20.2,30.22,North,0,10.4,10.4,61,0.00,BKN,,0.40,WeatherDisplay:10.37,2013-03-20 13:30:00,
2013-03-20 08:35:00,32.2,20.2,30.22,NNW,327,3.0,10.0,61,0.00,BKN,,0.40,WeatherDisplay:10.37,2013-03-20 13:35:00,
2013-03-20 08:40:00,32.4,20.8,30.22,NW,315,2.8,2.8,62,0.00,BKN,,0.40,WeatherDisplay:10.37,2013-03-20 13:40:00,
2013-03-20 08:45:00,32.5,20.6,30.22,NNE,22,3.5,3.5,61,0.00,BKN,,0.40,WeatherDisplay:10.37,2013-03-20 13:45:00,
2013-03-20 08:50:00,32.2,19.4,30.22,West,270,3.4,3.4,59,0.00,BKN,,0.40,WeatherDisplay:10.37,2013-03-20 13:50:00,
2013-03-20 08:55:00,32.0,18.9,30.24,NW,323,2.0,7.0,58,0.00,BKN,,0.40,WeatherDisplay:10.37,2013-03-20 13:55:00,
2013-03-20 09:00:00,31.8,18.3,30.24,West,270,5.8,5.8,57,0.00,BKN,,0.40,WeatherDisplay:10.37,2013-03-20 14:00:00,
2013-03-20 09:05:00,31.8,18.3,30.24,NNE,22,1.3,2.1,57,0.00,BKN,,0.40,WeatherDisplay:10.37,2013-03-20 14:05:00,
2013-03-20 09:10:00,32.0,18.5,30.24,SW,225,2.4,2.4,57,0.00,BKN,,0.40,WeatherDisplay:10.37,2013-03-20 14:10:00,
2013-03-20 09:15:00,32.5,18.6,30.25,West,270,4.6,4.6,56,0.00,BKN,,0.40,WeatherDisplay:10.37,2013-03-20 14:15:00,
2013-03-20 09:20:00,32.7,18.7,30.25,West,270,4.9,4.9,56,0.00,BKN,,0.40,WeatherDisplay:10.37,2013-03-20 14:20:00,
2013-03-20 09:25:00,32.9,18.1,30.25,NW,315,5.8,5.8,54,0.00,BKN,,0.40,WeatherDisplay:10.37,2013-03-20 14:25:00,
2013-03-20 09:30:00,32.9,17.6,30.25,NNW,338,3.5,3.5,53,0.00,BKN,,0.40,WeatherDisplay:10.37,2013-03-20 14:30:00,
2013-03-20 09:31:00,33.1,17.8,30.25,WNW,292,8.4,8.4,53,0.00,BKN,,0.40,WeatherDisplay:10.37,2013-03-20 14:31:00,
2013-03-20 09:35:00,32.7,17.5,30.25,West,270,6.9,6.9,53,0.00,BKN,,0.40,WeatherDisplay:10.37,2013-03-20 14:35:00,
2013-03-20 09:40:00,32.9,17.2,30.25,NW,315,5.9,5.9,52,0.00,BKN,,0.40,WeatherDisplay:10.37,2013-03-20 14:40:00,
2013-03-20 09:41:00,32.7,17.0,30.25,NNE,22,3.5,4.1,52,0.00,BKN,,0.40,WeatherDisplay:10.37,2013-03-20 14:41:00,
2013-03-20 09:45:00,32.7,17.0,30.25,NNE,22,3.5,4.1,52,0.00,BKN,,0.40,WeatherDisplay:10.37,2013-03-20 14:45:00,
2013-03-20 09:50:00,32.9,16.7,30.25,NNW,338,5.8,5.8,51,0.00,BKN,,0.40,WeatherDisplay:10.37,2013-03-20 14:50:00,
2013-03-20 09:55:00,33.4,17.2,30.25,SSW,202,8.1,8.1,51,0.00,BKN,,0.40,WeatherDisplay:10.37,2013-03-20 14:55:00,
2013-03-20 10:00:00,33.4,16.3,30.25,NW,315,4.9,4.9,49,0.00,SCT,,0.40,WeatherDisplay:10.37,2013-03-20 15:00:00,
2013-03-20 10:05:00,32.9,15.3,30.25,NW,315,8.1,8.1,48,0.00,SCT,,0.40,WeatherDisplay:10.37,2013-03-20 15:05:00,
2013-03-20 10:10:00,32.9,15.8,30.25,NNE,22,6.1,6.1,49,0.00,SCT,,0.40,WeatherDisplay:10.37,2013-03-20 15:10:00,
2013-03-20 10:11:00,33.1,16.0,30.26,NE,45,1.6,4.4,49,0.00,SCT,,0.40,WeatherDisplay:10.37,2013-03-20 15:11:00,
2013-03-20 10:15:00,33.1,16.0,30.26,NE,45,1.6,4.4,49,0.00,SCT,,0.40,WeatherDisplay:10.37,2013-03-20 15:15:00,
2013-03-20 10:20:00,33.6,16.5,30.26,NNW,333,3.0,7.0,49,0.00,SCT,,0.40,WeatherDisplay:10.37,2013-03-20 15:20:00,
2013-03-20 10:21:00,33.4,16.3,30.26,WNW,292,3.4,3.4,49,0.00,SCT,,0.40,WeatherDisplay:10.37,2013-03-20 15:21:00,
2013-03-20 10:25:00,33.4,16.3,30.26,WNW,292,3.4,3.4,49,0.00,SCT,,0.40,WeatherDisplay:10.37,2013-03-20 15:25:00,
2013-03-20 10:30:00,32.9,15.3,30.26,NW,315,2.5,4.0,48,0.00,SCT,,0.40,WeatherDisplay:10.37,2013-03-20 15:30:00,
2013-03-20 10:31:00,32.4,14.8,30.26,WSW,248,2.8,3.8,48,0.00,SCT,,0.40,WeatherDisplay:10.37,2013-03-20 15:31:00,
2013-03-20 10:35:00,32.5,15.0,30.26,NW,315,6.9,6.9,48,0.00,SCT,,0.40,WeatherDisplay:10.37,2013-03-20 15:35:00,
2013-03-20 10:40:00,32.5,15.0,30.26,NW,315,6.1,6.1,48,0.00,SCT,,0.40,WeatherDisplay:10.37,2013-03-20 15:40:00,
2013-03-20 10:45:00,32.7,15.6,30.26,NNW,338,8.6,8.6,49,0.00,SCT,,0.40,WeatherDisplay:10.37,2013-03-20 15:45:00,
2013-03-20 10:50:00,32.9,15.3,30.26,NNE,22,8.5,8.5,48,0.00,SCT,,0.40,WeatherDisplay:10.37,2013-03-20 15:50:00,
2013-03-20 10:55:00,33.4,16.3,30.25,North,0,2.3,3.7,49,0.00,SCT,,0.40,WeatherDisplay:10.37,2013-03-20 15:55:00,
2013-03-20 11:00:00,34.0,15.8,30.25,NNW,338,7.4,7.4,47,0.00,SCT,,0.40,WeatherDisplay:10.37,2013-03-20 16:00:00,
2013-03-20 11:05:00,34.0,15.8,30.25,WNW,292,5.9,5.9,47,0.00,SCT,,0.40,WeatherDisplay:10.37,2013-03-20 16:05:00,
2013-03-20 11:10:00,33.6,15.0,30.25,SW,225,6.9,6.9,46,0.00,SCT,,0.40,WeatherDisplay:10.37,2013-03-20 16:10:00,
2013-03-20 11:15:00,33.4,15.3,30.25,WNW,299,3.0,7.0,47,0.00,SCT,,0.40,WeatherDisplay:10.37,2013-03-20 16:15:00,
2013-03-20 11:20:00,33.4,15.3,30.25,NNE,22,3.9,3.9,47,0.00,SCT,,0.40,WeatherDisplay:10.37,2013-03-20 16:20:00,
2013-03-20 11:25:00,33.6,16.0,30.25,NNW,338,1.7,2.4,48,0.00,SCT,,0.40,WeatherDisplay:10.37,2013-03-20 16:25:00,
2013-03-20 11:30:00,33.4,15.3,30.25,SSW,202,4.7,4.7,47,0.00,SCT,,0.40,WeatherDisplay:10.37,2013-03-20 16:30:00,
2013-03-20 11:35:00,33.3,15.7,30.25,SW,225,4.6,4.6,48,0.00,SCT,,0.40,WeatherDisplay:10.37,2013-03-20 16:35:00,
2013-03-20 11:40:00,33.4,15.3,30.25,NNW,338,2.3,4.3,47,0.00,SCT,,0.40,WeatherDisplay:10.37,2013-03-20 16:40:00,
2013-03-20 11:45:00,33.8,15.7,30.25,NW,315,3.4,3.4,47,0.00,SCT,,0.40,WeatherDisplay:10.37,2013-03-20 16:45:00,
2013-03-20 11:50:00,34.0,15.8,30.25,NE,45,3.6,3.6,47,0.00,SCT,,0.40,WeatherDisplay:10.37,2013-03-20 16:50:00,
2013-03-20 11:51:00,34.3,15.7,30.25,NNW,338,8.1,8.1,46,0.00,BKN,,0.40,WeatherDisplay:10.37,2013-03-20 16:51:00,
2013-03-20 11:55:00,34.3,15.7,30.25,NW,315,5.0,5.0,46,0.00,SCT,,0.40,WeatherDisplay:10.37,2013-03-20 16:55:00,
2013-03-20 12:00:00,34.3,15.7,30.25,NNW,338,8.1,8.1,46,0.00,BKN,,0.40,WeatherDisplay:10.37,2013-03-20 17:00:00,
2013-03-20 12:05:00,34.2,15.5,30.25,NNW,338,5.8,5.8,46,0.00,BKN,,0.40,WeatherDisplay:10.37,2013-03-20 17:05:00,
2013-03-20 12:10:00,34.2,15.5,30.25,NNW,338,5.8,5.8,46,0.00,BKN,,0.40,WeatherDisplay:10.37,2013-03-20 17:10:00,
2013-03-20 12:11:00,34.9,16.2,30.24,West,270,4.6,4.6,46,0.00,BKN,,0.40,WeatherDisplay:10.37,2013-03-20 17:11:00,
2013-03-20 12:15:00,34.5,15.8,30.24,WSW,248,4.9,4.9,46,0.00,BKN,,0.40,WeatherDisplay:10.37,2013-03-20 17:15:00,
2013-03-20 12:20:00,34.9,16.2,30.24,West,270,4.6,4.6,46,0.00,BKN,,0.40,WeatherDisplay:10.37,2013-03-20 17:20:00,
2013-03-20 12:25:00,35.4,16.7,30.24,NW,315,7.1,7.1,46,0.00,BKN,,0.40,WeatherDisplay:10.37,2013-03-20 17:25:00,
2013-03-20 12:30:00,35.1,15.8,30.24,West,270,8.1,8.1,45,0.00,BKN,,0.40,WeatherDisplay:10.37,2013-03-20 17:30:00,
2013-03-20 12:35:00,35.4,16.2,30.23,NNW,338,2.8,5.6,45,0.00,BKN,,0.40,WeatherDisplay:10.37,2013-03-20 17:35:00,
2013-03-20 12:40:00,35.6,16.3,30.23,NNW,338,4.6,4.6,45,0.00,BKN,,0.40,WeatherDisplay:10.37,2013-03-20 17:40:00,
2013-03-20 12:45:00,35.4,15.6,30.23,NW,315,6.9,6.9,44,0.00,BKN,,0.40,WeatherDisplay:10.37,2013-03-20 17:45:00,
2013-03-20 12:50:00,35.4,15.6,30.23,NW,315,4.9,5.3,44,0.00,BKN,,0.40,WeatherDisplay:10.37,2013-03-20 17:50:00,
2013-03-20 12:55:00,35.6,16.3,30.21,WNW,292,5.1,5.1,45,0.00,BKN,,0.40,WeatherDisplay:10.37,2013-03-20 17:55:00,
2013-03-20 13:00:00,35.6,16.3,30.21,SW,225,3.4,3.5,45,0.00,BKN,,0.40,WeatherDisplay:10.37,2013-03-20 18:00:00,
2013-03-20 13:05:00,35.6,16.3,30.21,NW,315,6.0,6.0,45,0.00,BKN,,0.40,WeatherDisplay:10.37,2013-03-20 18:05:00,
2013-03-20 13:10:00,35.8,16.5,30.21,NW,315,5.8,5.8,45,0.00,BKN,,0.40,WeatherDisplay:10.37,2013-03-20 18:10:00,
2013-03-20 13:15:00,36.0,15.6,30.22,NNW,338,7.4,7.4,43,0.00,BKN,,0.40,WeatherDisplay:10.37,2013-03-20 18:15:00,
2013-03-20 13:20:00,36.1,15.8,30.22,SSE,158,4.6,4.6,43,0.00,BKN,,0.40,WeatherDisplay:10.37,2013-03-20 18:20:00,
2013-03-20 13:25:00,37.0,16.0,30.22,NNW,338,4.7,4.7,42,0.00,BKN,,0.40,WeatherDisplay:10.37,2013-03-20 18:25:00,
2013-03-20 13:30:00,37.4,16.4,30.22,ESE,112,1.6,3.8,42,0.00,BKN,,0.40,WeatherDisplay:10.37,2013-03-20 18:30:00,
2013-03-20 13:31:00,37.2,16.2,30.21,NNE,22,5.0,5.0,42,0.00,BKN,,0.40,WeatherDisplay:10.37,2013-03-20 18:31:00,
2013-03-20 13:35:00,37.2,16.2,30.21,NNE,22,5.0,5.0,42,0.00,BKN,,0.40,WeatherDisplay:10.37,2013-03-20 18:35:00,
2013-03-20 13:40:00,37.2,16.2,30.21,NNE,22,5.0,5.0,42,0.00,BKN,,0.40,WeatherDisplay:10.37,2013-03-20 18:40:00,
2013-03-20 13:49:00,36.9,15.9,30.21,NNW,338,5.8,5.8,42,0.00,RA,,0.40,WeatherDisplay:10.37,2013-03-20 18:49:00,
2013-03-20 13:54:00,36.3,15.4,30.20,WSW,248,3.4,3.9,42,0.00,RA,,0.40,WeatherDisplay:10.37,2013-03-20 18:54:00,
2013-03-20 13:59:00,36.1,15.8,30.20,NNE,22,3.4,3.4,43,0.00,BKN,,0.40,WeatherDisplay:10.37,2013-03-20 18:59:00,
2013-03-20 14:04:00,36.1,16.3,30.20,ENE,68,3.4,3.7,44,0.00,BKN,,0.40,WeatherDisplay:10.37,2013-03-20 19:04:00,
2013-03-20 14:09:00,36.1,16.8,30.20,WSW,248,6.1,6.1,45,0.00,BKN,,0.40,WeatherDisplay:10.37,2013-03-20 19:09:00,
2013-03-20 14:14:00,36.5,17.1,30.20,NW,315,4.6,4.6,45,0.00,BKN,,0.40,WeatherDisplay:10.37,2013-03-20 19:14:00,
2013-03-20 14:19:00,36.9,16.4,30.20,NNW,338,5.8,5.8,43,0.00,BKN,,0.40,WeatherDisplay:10.37,2013-03-20 19:19:00,
2013-03-20 14:21:00,37.0,16.6,30.20,SE,135,10.3,10.3,43,0.00,BKN,,0.40,WeatherDisplay:10.37,2013-03-20 19:21:00,
2013-03-20 14:24:00,37.0,16.6,30.20,West,270,4.9,4.9,43,0.00,BKN,,0.40,WeatherDisplay:10.37,2013-03-20 19:24:00,
2013-03-20 14:29:00,37.2,16.7,30.20,NNW,338,4.0,4.0,43,0.00,BKN,,0.40,WeatherDisplay:10.37,2013-03-20 19:29:00,
2013-03-20 14:31:00,37.6,17.6,30.18,NW,315,1.4,3.9,44,0.00,BKN,,0.40,WeatherDisplay:10.37,2013-03-20 19:31:00,
2013-03-20 14:34:00,37.6,17.6,30.18,WSW,248,9.2,9.2,44,0.00,BKN,,0.40,WeatherDisplay:10.37,2013-03-20 19:34:00,
2013-03-20 14:39:00,37.2,17.3,30.18,NNW,338,8.2,8.2,44,0.00,BKN,,0.40,WeatherDisplay:10.37,2013-03-20 19:39:00,
2013-03-20 14:44:00,37.4,16.9,30.18,NNE,22,2.3,2.7,43,0.00,BKN,,0.40,WeatherDisplay:10.37,2013-03-20 19:44:00,
2013-03-20 14:49:00,37.6,16.0,30.18,NW,315,9.7,9.7,41,0.00,BKN,,0.40,WeatherDisplay:10.37,2013-03-20 19:49:00,
2013-03-20 14:51:00,37.0,14.9,30.17,NNE,22,5.8,6.4,40,0.00,BKN,,0.40,WeatherDisplay:10.37,2013-03-20 19:51:00,
2013-03-20 14:57:00,37.0,14.9,30.17,NNE,22,5.8,6.4,40,0.00,BKN,,0.40,WeatherDisplay:10.37,2013-03-20 19:57:00,
2013-03-20 15:02:00,37.2,14.5,30.17,WSW,248,8.1,8.1,39,0.00,BKN,,0.40,WeatherDisplay:10.37,2013-03-20 20:02:00,
2013-03-20 15:08:00,37.6,14.8,30.17,NW,315,8.1,8.1,39,0.00,BKN,,0.40,WeatherDisplay:10.37,2013-03-20 20:08:00,
2013-03-20 15:15:00,38.5,15.6,30.17,West,270,9.2,9.2,39,0.00,BKN,,0.40,WeatherDisplay:10.37,2013-03-20 20:15:00,
2013-03-20 15:20:00,39.0,15.5,30.17,West,270,6.9,6.9,38,0.00,BKN,,0.40,WeatherDisplay:10.37,2013-03-20 20:20:00,
2013-03-20 15:29:00,38.5,14.4,30.17,NW,315,3.4,4.6,37,0.00,BKN,,0.40,WeatherDisplay:10.37,2013-03-20 20:29:00,
2013-03-20 15:34:00,37.6,13.6,30.16,NNW,338,4.9,4.9,37,0.00,BKN,,0.40,WeatherDisplay:10.37,2013-03-20 20:34:00,
2013-03-20 15:42:00,37.8,13.8,30.16,WSW,248,5.0,5.0,37,0.00,BKN,,0.40,WeatherDisplay:10.37,2013-03-20 20:42:00,
2013-03-20 15:59:00,37.9,13.9,30.16,NNE,22,7.0,7.0,37,0.00,BKN,,0.40,WeatherDisplay:10.37,2013-03-20 20:59:00,
2013-03-20 16:38:00,36.7,12.2,30.15,NE,45,5.8,5.8,36,0.00,SCT,,0.40,WeatherDisplay:10.37,2013-03-20 21:38:00,
2013-03-20 16:41:00,36.7,12.2,30.15,NNW,338,3.9,5.0,36,0.00,SCT,,0.40,WeatherDisplay:10.37,2013-03-20 21:41:00,
2013-03-20 16:44:00,36.9,12.4,30.15,WSW,248,8.1,8.1,36,0.00,SCT,,0.40,WeatherDisplay:10.37,2013-03-20 21:44:00,
2013-03-20 16:49:00,36.7,12.2,30.15,NNW,338,3.4,5.0,36,0.00,SCT,,0.40,WeatherDisplay:10.37,2013-03-20 21:49:00,
2013-03-20 16:54:00,36.9,12.4,30.14,SSW,202,7.0,7.0,36,0.00,SCT,,0.40,WeatherDisplay:10.37,2013-03-20 21:54:00,
2013-03-20 17:21:00,36.5,12.7,30.14,NNW,338,9.2,9.2,37,0.00,SCT,,0.40,WeatherDisplay:10.37,2013-03-20 22:21:00,
2013-03-20 17:24:00,36.3,12.5,30.14,NNW,338,6.9,6.9,37,0.00,SCT,,0.40,WeatherDisplay:10.37,2013-03-20 22:24:00,
2013-03-20 17:28:00,36.3,12.5,30.14,NNW,338,6.9,6.9,37,0.00,SCT,,0.40,WeatherDisplay:10.37,2013-03-20 22:28:00,
2013-03-20 17:33:00,36.5,12.7,30.14,NNW,338,2.3,3.8,37,0.00,SCT,,0.40,WeatherDisplay:10.37,2013-03-20 22:33:00,
2013-03-20 20:23:00,32.5,11.4,30.13,NNW,338,3.4,3.4,41,0.00,SCT,,0.40,WeatherDisplay:10.37,2013-03-21 01:23:00,
2013-03-20 20:28:00,32.5,11.4,30.13,West,270,2.3,2.3,41,0.00,FEW,,0.40,WeatherDisplay:10.37,2013-03-21 01:28:00,
2013-03-20 20:33:00,32.5,11.4,30.12,NW,315,2.3,2.3,41,0.00,FEW,,0.40,WeatherDisplay:10.37,2013-03-21 01:33:00,
2013-03-20 20:38:00,32.5,12.0,30.12,West,270,1.6,1.7,42,0.00,FEW,,0.40,WeatherDisplay:10.37,2013-03-21 01:38:00,
2013-03-20 20:43:00,32.4,11.8,30.12,NW,315,2.3,2.3,42,0.00,FEW,,0.40,WeatherDisplay:10.37,2013-03-21 01:43:00,
2013-03-20 20:48:00,32.2,11.6,30.12,SW,225,2.3,2.3,42,0.00,FEW,,0.40,WeatherDisplay:10.37,2013-03-21 01:48:00,
2013-03-20 20:53:00,32.2,11.6,30.11,NNW,338,1.5,1.5,42,0.00,FEW,,0.40,WeatherDisplay:10.37,2013-03-21 01:53:00,
2013-03-20 20:58:00,32.2,11.6,30.11,NNW,338,1.2,1.2,42,0.00,FEW,,0.40,WeatherDisplay:10.37,2013-03-21 01:58:00,
2013-03-20 21:03:00,32.2,11.6,30.11,North,0,1.3,1.3,42,0.00,FEW,,0.40,WeatherDisplay:10.37,2013-03-21 02:03:00,
2013-03-20 21:08:00,31.8,11.3,30.11,NW,315,2.5,2.5,42,0.00,FEW,,0.40,WeatherDisplay:10.37,2013-03-21 02:08:00,
2013-03-20 21:13:00,31.8,11.8,30.11,NNW,338,1.1,1.1,43,0.00,FEW,,0.40,WeatherDisplay:10.37,2013-03-21 02:13:00,
2013-03-20 21:18:00,31.8,11.8,30.11,NNW,338,1.3,1.3,43,0.00,FEW,,0.40,WeatherDisplay:10.37,2013-03-21 02:18:00,
2013-03-20 21:23:00,31.8,11.8,30.11,North,0,2.3,2.3,43,0.00,FEW,,0.40,WeatherDisplay:10.37,2013-03-21 02:23:00,
2013-03-20 21:28:00,31.6,11.7,30.11,WNW,292,1.1,1.1,43,0.00,FEW,,0.40,WeatherDisplay:10.37,2013-03-21 02:28:00,
2013-03-20 21:33:00,31.8,11.8,30.11,NNE,22,0.0,0.7,43,0.00,FEW,,0.40,WeatherDisplay:10.37,2013-03-21 02:33:00,
2013-03-20 21:38:00,31.5,12.0,30.11,NNW,338,2.3,2.3,44,0.00,FEW,,0.40,WeatherDisplay:10.37,2013-03-21 02:38:00,
2013-03-20 21:43:00,31.5,12.0,30.11,West,270,1.3,1.3,44,0.00,FEW,,0.40,WeatherDisplay:10.37,2013-03-21 02:43:00,
2013-03-20 21:48:00,31.5,12.0,30.11,North,0,0.0,0.5,44,0.00,FEW,,0.40,WeatherDisplay:10.37,2013-03-21 02:48:00,
2013-03-20 21:53:00,31.3,11.9,30.10,NW,315,1.3,1.3,44,0.00,FEW,,0.40,WeatherDisplay:10.37,2013-03-21 02:53:00,
2013-03-20 21:58:00,31.3,11.9,30.10,NW,315,2.3,2.3,44,0.00,CLR,,0.40,WeatherDisplay:10.37,2013-03-21 02:58:00,
2013-03-20 22:00:00,31.1,12.2,30.11,North,0,0.0,0.0,45,0.00,CLR,,0.40,WeatherDisplay:10.37,2013-03-21 03:00:00,
2013-03-20 22:03:00,31.3,11.9,30.10,NW,315,1.1,1.1,44,0.00,CLR,,0.40,WeatherDisplay:10.37,2013-03-21 03:03:00,
2013-03-20 22:08:00,31.5,12.5,30.10,West,270,0.0,0.4,45,0.00,CLR,,0.40,WeatherDisplay:10.37,2013-03-21 03:08:00,
2013-03-20 22:13:00,31.1,12.2,30.11,WSW,248,0.0,0.1,45,0.00,CLR,,0.40,WeatherDisplay:10.37,2013-03-21 03:13:00,
2013-03-20 22:20:00,31.1,12.2,30.11,WSW,248,0.0,0.0,45,0.00,CLR,,0.40,WeatherDisplay:10.37,2013-03-21 03:20:00,
2013-03-20 22:25:00,31.1,12.2,30.11,South,180,0.0,0.0,45,0.00,CLR,,0.40,WeatherDisplay:10.37,2013-03-21 03:25:00,
2013-03-20 22:30:00,31.1,12.2,30.11,WNW,292,0.0,0.0,45,0.00,CLR,,0.40,WeatherDisplay:10.37,2013-03-21 03:30:00,